IRIDIUM 22

Last updated on Wed Nov 29 2017 00:19:02 GMT+0000 (Coordinated Universal Time)

1 24907U 97043E 17332.56624618 .00000110 00000-0 32240-4 0 9996 2 24907 86.3986 187.4238 0001948 88.9200 271.2219 14.34220415 61395

Satellite not in orbit

IRIDIUM 22